STARLINK-2068, 47722

Orbit data source: Space-Track

STARLINK-2068, 47722 is a payload satellite owned by SpaceX/Seattle (US) in LEO that was launched on Thu, 04 Mar 2021 UTC via an FALCON 9 launch vehicle from the Air Force Eastern Test Range (AFETR). Payload-class satellites include a variety of spacecraft equipped with specific instruments for various scientific and technological missions. These include communications satellites like Starlink; space stations such as the ISS; scientific satellites like the Hubble; Earth observation satellites from companies like Planet Labs, Umbra, and HawkEye 360; GPS; miniature CubeSats for education and research; and military/defense satellites.

Loading next visibility...
Identifier
47722, 2021-017A
Orbit
LEO
Country
Flag of USUS
Related business
Manufacturer
SpaceX/Seattle
Mission
Operational Commercial Communications
Bus & Motor
STARLINK, Unknown motor
Mass
260 kg wet, ~248 kg dry
Launch date (UTC)
2021-03-04 (5 years ago)
Launch vehicle
FALCON 9
Launch site
Air Force Eastern Test Range (AFETR)
Object type
Payload
Rocket body
Debris
Shape & HBR
Box + 1 Pan, 10.1 m
Radar Cross Section
13.562 m², Large (>1 m²)

Expand to show TLE details & history
Last TLE update: 1 day ago

TLE from 1 day ago
0 STARLINK-2068
1 47722U 21017A   26235.41793222  .00000683  00000-0  33764-4 0  9995
2 47722  53.1611 135.1392 0001406  96.6419 263.4743 15.31707553303621
Epoch: 2026-08-23T10:01Z
TLE epoch observation values (Epoch: 2026-08-23T10:01:49.343Z)
Latitude
Longitude
12.96933°
Altitude
471.727 km
Speed
7.631 km/s
True Right ascension
09h 00m 33s
True Declination
0° 00' 00"
Sunlit
Object was in daylight at epoch
Visualization orbit readout
Latitude
Unknown
Longitude
Unknown
Altitude
Unknown
Speed
Unknown
Apparent Right ascension
Unknown
Apparent Declination
Unknown
Sunlit
N/A
Visualization observer readout
Local Sidereal Time
02:49:08
Azimuth
Unknown
Elevation
Unknown
Doppler factor
Unknown
Orbital elements
Apogee altitude
471.937 km
Perigee altitude
470.011 km
Semi-major axis
6,849.111 km
Eccentricity
0.00014
Inclination
53.1611°
RAAN
135.1392°
Arg. of periapsis
96.6419°
True anomaly
263.45829°
Mean anomaly
263.4743°
Eccentric anomaly
263.4663°
Mean motion
3.82906 °/min
Orbital period
94.02 mins
BSTAR
0.000033764
Loading maneuver chart data...
Computing Atmospheric mass density...
Loading historical data...
Loading historical data...
Loading historical data...
Loading historical data...
Loading historical data...
Loading historical data...
Loading historical data...

Documentation

Showing up to 5 results
|